Regional Weather Roundup
Issued by NWS Charleston, SC

Current Version | Previous Version | Graphics & Text | Print | Product List | Glossary On
Versions: 1 2 3 4 5 6 7 8 9 10 11 12 13 14 15 16 17 18 19 20 21 22 23 24 25 26 27 28 29 30 31 32 33 34 35 36 37 38 39 40 41 42 43 44 45 46 47 48 49 50
000
ASUS42 KCHS 012328
RWRCHS

REGIONAL WEATHER ROUNDUP
NATIONAL WEATHER SERVICE CHARLESTON SC
700 PM EDT SUN MAY 01 2016

NOTE: "FAIR" INDICATES FEW OR NO CLOUDS BELOW 12,000 FEET WITH NO
SIGNIFICANT WEATHER AND/OR OBSTRUCTIONS TO VISIBILITY.

NOT ALL STATIONS ARE QUALITY CONTROLLED. USE DATA WITH CAUTION...
ESPECIALLY DEWPOINT OBSERVATIONS.

SCZ027-030-031-034>040-042>050-020000-
...SOUTHEAST SOUTH CAROLINA...

CITY           SKY/WX    TMP DP  RH WIND       PRES   REMARKS
N CHARLESTON   CLOUDY    76  70  82 S6        30.05S
WATERFRONT PRK   N/A     75  72  90 VRB3      30.04S
MOUNT PLEASANT FAIR      75  72  88 S5        30.06S
JOHNS ISLAND   FAIR      75  72  88 S6        30.07R
PINOPOLIS        N/A     73  68  83 E5        29.98
MONCKS CORNER  FAIR      66  64  94 CALM      30.06R
SUMMERVILLE    FAIR      70  70 100 CALM      30.06S
BEAUFORT MCAS  LGT RAIN  73  67  81 N3        30.06R
BEAUFORT ARPT  FAIR      77  70  78 S3        30.05S
HILTON HEAD IS PTSUNNY   77  73  88 S6        30.07R
WALTERBORO     CLOUDY    72  72 100 SE3       30.04F
ALLENDALE      FAIR      73  68  83 SE6G13    30.02S

...SOUTHERN MIDLANDS AND PEE DEE...

CITY           SKY/WX    TMP DP  RH WIND       PRES   REMARKS
GEORGETOWN     DRIZZLE   68  63  83 SE7       30.07F
KINGSTREE      MOCLDY    68  64  88 SE7       30.04S
ORANGEBURG     SUNNY     74  67  78 S6        30.02F
BARNWELL       FAIR      75  72  88 SE9       30.03R
AIKEN          FAIR      77  68  73 SE8       30.04R
MANNING        NOT AVBL
COLUMBIA       CLOUDY    76  67  73 E7        29.99F
SUMTER         CLOUDY    74  69  85 SE9       30.00R
FLORENCE       PTSUNNY   71  67  87 S14       30.03F
MYRTLE BEACH   LGT RAIN  70  64  83 S13       30.07F FOG
N MYRTLE BEACH LGT RAIN  71  69  93 S8        30.04F FOG

$$

GAZ063-065-086>088-099>101-113>116-118-119-134>141-150-020000-
...SOUTHEAST GEORGIA...

CITY           SKY/WX    TMP DP  RH WIND       PRES   REMARKS
SAVANNAH ARPT  CLOUDY    74  63  68 NE5       30.06R
HUNTER AAF     CLOUDY    77  71  82 E3        30.04R
FORT STEWART   CLOUDY    70  66  88 N15       30.03R
STATESBORO     CLOUDY    73  72  95 S5        30.04R
SYLVANIA       CLOUDY    71  70  96 CALM      30.05R
CLAXTON        RAIN      70  70 100 S3        30.06R

...CSRA...CENTRAL AND FAR SOUTHEAST GEORGIA...

CITY           SKY/WX    TMP DP  RH WIND       PRES   REMARKS
THOMSON        CLOUDY    83  73  71 CALM      30.03S
AUGUSTA-BUSH   CLOUDY    79  67  66 SE13      29.98R
AUGUSTA-DANIEL LGT RAIN  79  70  74 VRB5      30.00R
SWAINSBORO     FAIR      77  68  73 SE10      30.02F
VIDALIA        PTSUNNY   72  68  88 E8        30.02S
EASTMAN        FAIR      79  70  74 CALM      30.02S
HAZLEHURST     CLOUDY    76  70  80 E12       30.01R
ALMA           PTSUNNY   82  70  66 SE9       30.00R
WAYCROSS       LGT RAIN  79  70  74 SE6       30.00R
JESUP          MOCLDY    81  73  78 E9        30.03R
BAXLEY         LGT RAIN  72  70  94 E20G25    30.01S
BRUNSWICK      MOSUNNY   82  73  74 SE10      30.03S
SAINT SIMONS   MOSUNNY   77  72  84 SE9       30.03R

$$

SCZ027-028-034-036>038-045-046-048>050-GAZ119-141-020000-
...LAKE AND SUPPLEMENTAL COASTAL OBSERVATIONS...

STATION/POSITION TIME  TEMP    WIND        PRES    WAVE   SWELL
                       AIR SEA DIR/SP/G            HT/PER HT/PER/DIR
                 (UTC) (F)     (DEG/KT/KT) (MB)    (FT/S) (FT/S/D)
WINYAH BAY       2200   71      10/  7     1018.0R
LAKE MURRAY      2200   78     140/ 11/ 16 1014.6S
ACE BASIN NERRS  2245   76        CALM     1018.0R
FORT PULASKI     2300   76 74              1018.1R
SAPELO ISLAND    2300   77     150/  5     1017.0S

$$

ANZ835-935-AMZ111-154-330-350-352-354-370-450-454-472-020000-
...C-MAN AND BUOY OBSERVATIONS...

STATION/POSITION TIME  TEMP    WIND        PRES    WAVE   SWELL
                       AIR SEA DIR/SP/G            HT/PER HT/PER/DIR
                 (UTC) (F)     (DEG/KT/KT) (MB)    (FT/S) (FT/S/D)
BUOY 41004       2250   75 73  160/  6/  6 1017.7R   4/ 6   3/ 6
BUOY 41008       NOT AVBL
FOLLY BEACH CMAN 2300   74     180/  3/  3 1018.2R
CAPERS NEARSHORE 2208   73 72  200/  4/  6 1017.8R
FRIPP NEARSHORE  2208   74 74  170/  6/  8 1016.9R


STATION/POSITION TIME  TEMP    WIND        PRES    WAVE   SWELL
                       AIR SEA DIR/SP/G            HT/PER HT/PER/DIR
                 (UTC) (F)     (DEG/KT/KT) (MB)    (FT/S) (FT/S/D)
5E ST. MARYS GA  2221      75                N/A     3/ 6
FRYING PAN BUOY  2300   73 72  200/  2/  4 1018.0F
BUOY 41025       2250   74 74  180/ 16/ 17 1017.4F   4/ 9   3/ 50/ 9
CAPE LOOKOUT NC  2300   70     180/ 12/ 13 1017.1F
BUOY 41002       2250   73 74  130/  8/ 10 1019.9R   4/ 9   5/ 10/ 9
BUOY 41010       2220   77 78  130/ 10/ 10 1017.3S
ST AUGUSTINE FL  2300   75 74  140/ 11/ 12 1017.0R


$$




USA.gov is the U.S. government's official web portal to all federal, state and local government web resources and services.